User: anonymous   Login
Location: Vancouver
(49.2500°N, 123.1330°W)
Time: 15:43:09
(UTC-08:00)
Language:

BREEZE-M DEB (TANK) - Orbit

View from above orbital plane
View from above orbital plane
View from above satellite
View from above satellite

Ground track
Ground track

The orbit data is extracted from the following two-line orbital elements,

1 27821U 03024B   14325.22353588  .00006742  00000-0  85398-3 0  5294
2 27821 049.5906 028.4955 5001329 041.7117 359.3253 05.64084677226826
Epoch (UTC): 21 November 2014 05:21:53
Eccentricity: 0.5001329
inclination: 49.5906°
perigee height: 285 km
apogee height: 13619 km
right ascension of ascending node: 28.4955°
argument of perigee: 41.7117°
revolutions per day: 5.64084677
mean anomaly at epoch: 359.3253°
orbit number at epoch: 22682

The dashed part of the orbit path shows where the satellite is in the earth's shadow,  

DLR